Location: Marcé
(47.5801°N, 0.3280°W)
Time: 17:22:59
(UTC+02:00)

ACS3 Solar Sail - Pass Details

Date: 27 June 2024
Orbit: 992 x 1023 km, 97.4° (Epoch: 12 July)

Event Time Altitude Azimuth Distance (km) Brightness Sun altitude
Exits shadow 22:38:57 - 144° (SE) 3,129 6.8 -5.4°
Reaches altitude 10° 22:39:58 10° 141° (SE) 2,758 6.5 -5.6°
Maximum altitude 22:45:53 49° 69° (ENE) 1,263 5.3 -6.3°
Drops below altitude 10° 22:51:50 10° 357° (N) 2,768 8.0 -7.0°
Sets 22:54:23 0° 352° (N) 3,721 8.9 -7.3°
